Regional Weather Roundup
Issued by NWS

Home | Current Version | Previous Version | Text Only | Print | Product List | Glossary On
Versions: 1 2 3 4 5 6 7 8 9 10 11 12 13 14 15 16 17 18 19 20 21 22 23 24 25 26 27 28 29 30 31 32 33 34 35 36 37 38 39 40 41 42 43 44 45 46 47 48 49 50
000
ASCA42 TJSJ 201811
RWRPR
PUERTO RICO/U.S. VIRGIN ISLANDS HOURLY WEATHER ROUNDUP
NATIONAL WEATHER SERVICE SAN JUAN PR
200 PM AST SAT DEC 20 2014

PRZ001-004-201900-
PUERTO RICO

CITY           SKY/WX    TMP DP  RH WIND       PRES   REMARKS
SAN JUAN LMM   MOSUNNY   84  72  65 E15       29.99F
MAYAGUEZ       MOSUNNY   84  66  54 W10       30.00S
AGUADILLA      MOSUNNY   82  70  65 E17       30.00F
CEIBA          MOSUNNY   82  72  69 NE7       30.02F
$$

PRZ006-007-201900-
U.S. VIRGIN ISLANDS

CITY           SKY/WX    TMP DP  RH WIND       PRES   REMARKS
CHARLOTTE AMA  MOSUNNY   84  68  58 E14       29.98
$$

HOURLY WEATHER ROUNDUP FOR THE NEWS MEDIA

CITY           SKY/WX    TMP DP  RH WIND       PRES   REMARKS
MIAMI          MOSUNNY   77  60  55 SE9       30.06F
ORLANDO        SUNNY     74  59  59 S6        30.07F
NEW YORK       CLOUDY    34  20  56 N6        30.27F WCI  29
NEWARK         CLOUDY    32  21  64 NW8       30.27F WCI  25
CHICAGO        CLOUDY    31  23  72 S8        30.26F WCI  23
HARTFORD       CLOUDY    35  27  72 N7        30.23S WCI  29
BOSTON         CLOUDY    33  24  69 N8        30.27S WCI  26
DALLAS         DRIZZLE   46  42  86 NE5       30.25F
PHILADELPHIA   CLOUDY    35  20  54 NW6       30.29S WCI  30


USA.gov is the U.S. government's official web portal to all federal, state and local government web resources and services.